Yatton Keynell, United Kingdom

11:06 PM BST on June 15, 2019 (GMT +0100)
Yatton Keynell

Weather History for 03740 - July, 2011

Change the Weather History Date:

Wednesday, July 20, 2011

  Actual Average Record
Temperature  
Mean Temperature 58 °F -  
Max Temperature 62 °F 68 °F - ()
Min Temperature 51 °F 53 °F - ()
Degree Days  
Heating Degree Days 8    
Growing Degree Days 8 (Base 50)    
Moisture  
Dew Point 50 °F    
Average Humidity 80    
Maximum Humidity 100    
Minimum Humidity 58    
Precipitation  
Precipitation 0.02 in 0.08 in - ()
Sea Level Pressure  
Sea Level Pressure 29.80 in    
Wind  
Wind Speed 4 mph ()    
Max Wind Speed 10 mph    
Max Gust Speed -    
Visibility 8.1 miles    
Events      
T = Trace of Precipitation, MM = Missing Value Source: Averaged Metar Reports

Daily Weather History Graph

Daily Weather History Graph

Search for Another Location

Airport or City:

Astronomy

Jul. 20, 2011 Rise Set
Actual Time 5:14 AM BST 9:13 PM BST
Civil Twilight 4:30 AM BST 9:57 PM BST
Nautical Twilight 3:28 AM BST 10:58 PM BST
Astronomical Twilight 1:46 AM BST 12:41 AM BST
Moon 10:48 PM BST (7/20) 11:14 AM BST (7/20)
Length of Visible Light 17h 26m
Length of Day
15h 59m
Waning Gibbous, 75% of the Moon is Illuminated
Jul 20
Waning Gibbous
Jul 23
Last Quarter
Jul 30
New
Aug 6
First Quarter
Aug 13
Full

Hourly Weather History & Observations

Time (BST) Temp. Dew Point Humidity Pressure Visibility Wind Dir Wind Speed Gust Speed Precip Events Conditions
12:50 AM 55 °F 48 °F 69% 29.81 in 19 mi WSW 3.5 mph - -   Overcast
12:50 AM 55.4 °F 48.2 °F 77% 29.80 in 6.2 mi WSW 3.5 mph - N/A   Overcast
1:50 AM 53.6 °F 48.2 °F 82% 29.80 in 6.2 mi West 5.8 mph - N/A   Overcast
2:50 AM 53.6 °F 48.2 °F 82% 29.80 in 6.2 mi West 8.1 mph - N/A   Overcast
3:50 AM 53 °F 49 °F 80% 29.80 in 16 mi WSW 5.8 mph - -   Overcast
3:50 AM 53.6 °F 48.2 °F 82% 29.77 in 6.2 mi WSW 5.8 mph - N/A   Overcast
4:50 AM 53.6 °F 50.0 °F 88% 29.77 in 6.2 mi SW 4.6 mph - N/A   Overcast
5:50 AM 53.6 °F 50.0 °F 88% 29.77 in 6.2 mi SSE 3.5 mph - N/A   Overcast
6:50 AM 54 °F 50 °F 82% 29.80 in 14 mi South 5.8 mph - -  
6:50 AM 53.6 °F 50.0 °F 88% 29.80 in 6.2 mi South 5.8 mph - N/A   Overcast
7:50 AM 53.6 °F 51.8 °F 94% 29.80 in 6.2 mi South 4.6 mph - N/A   Overcast
8:50 AM 55.4 °F 51.8 °F 88% 29.80 in 6.2 mi South 4.6 mph - N/A   Overcast
9:50 AM 57 °F 50 °F 72% 29.81 in 16 mi SW 5.8 mph - -   Scattered Clouds
9:50 AM 57.2 °F 50.0 °F 77% 29.80 in 6.2 mi SW 5.8 mph - N/A   Mostly Cloudy
10:50 AM 57.2 °F 50.0 °F 77% 29.80 in 6.2 mi SW 3.5 mph - N/A   Mostly Cloudy
11:50 AM 55.4 °F 51.8 °F 88% 29.80 in 6.2 mi SSW 10.4 mph - N/A   Mostly Cloudy
12:50 PM 57 °F 54 °F 85% 29.81 in 14 mi South 4.6 mph - -   Scattered Clouds
12:50 PM 57.2 °F 53.6 °F 88% 29.80 in 6.2 mi South 4.6 mph - N/A   Mostly Cloudy
1:50 PM 57.2 °F 51.8 °F 82% 29.80 in 6.2 mi South 3.5 mph - N/A   Mostly Cloudy
2:50 PM 60.8 °F 51.8 °F 72% 29.80 in 6.2 mi SSE 3.5 mph - N/A   Mostly Cloudy
3:50 PM 60 °F 49 °F 58% 29.80 in 22 mi ESE 3.5 mph - -   Overcast
3:50 PM 59.0 °F 50.0 °F 72% 29.80 in 6.2 mi ESE 3.5 mph - N/A   Overcast
4:50 PM 60.8 °F 50.0 °F 68% 29.80 in 6.2 mi East 2.3 mph - N/A   Overcast
5:50 PM 60.8 °F 50.0 °F 68% 29.80 in 6.2 mi SE 3.5 mph - N/A   Overcast
6:50 PM 61 °F 50 °F 59% 29.81 in 22 mi SSE 5.8 mph - -   Mostly Cloudy
6:50 PM 60.8 °F 50.0 °F 68% 29.80 in 6.2 mi SSE 5.8 mph - N/A   Mostly Cloudy
7:50 PM 59.0 °F 50.0 °F 72% 29.80 in 6.2 mi SSE 5.8 mph - N/A   Mostly Cloudy
8:50 PM 55.4 °F 51.8 °F 88% 29.83 in 6.2 mi East 1.2 mph - N/A   Mostly Cloudy
9:50 PM 55 °F 53 °F 88% 29.85 in 16 mi SW 2.3 mph - -   Overcast
9:50 PM 55.4 °F 51.8 °F 88% 29.83 in 6.2 mi SW 2.3 mph - N/A   Overcast
10:50 PM 53.6 °F 51.8 °F 94% 29.83 in 6.2 mi West 3.5 mph - N/A   Overcast
11:50 PM 51.8 °F 51.8 °F 100% 29.86 in 6.2 mi NW 5.8 mph - N/A   Scattered Clouds